Change the Weather History Date:

Monday, November 11, 2013

  Actual Average (KPAH) Record (KPAH)
Temperature  
Mean Temperature 48 °F 50 °F  
Max Temperature 62 °F 61 °F 79 °F (1989)
Min Temperature 33 °F 40 °F 18 °F (1960)
Degree Days  
Heating Degree Days 18 15  
Month to date heating degree days 146  
Since 1 July heating degree days 413  
Cooling Degree Days 0 0  
Month to date cooling degree days 0  
Year to date cooling degree days 1538  
Moisture  
Dew Point 35 °F    
Average Humidity 62    
Maximum Humidity 100    
Minimum Humidity 31    
Precipitation  
Precipitation 0.00 in 0.13 in 2.18 in (1940)
Month to date precipitation 1.40  
Year to date precipitation 41.59  
Snow  
Snow 0.00 in 0.00 in T in (1995)
Month to date snowfall 0.0  
Since 1 July snowfall 0.1  
Since 1 September snowfall 0.1  
Snow Depth -    
Sea Level Pressure  
Sea Level Pressure 30.24 in    
Wind  
Wind Speed 3 mph (WSW)    
Max Wind Speed 18 mph    
Max Gust Speed 28 mph    
Visibility 10 miles    
Events Rain    
T = Trace of Precipitation, MM = Missing Value Source: NWS Daily Summary

Daily Weather History Graph

Daily Weather History Graph

Search for Another Location

Airport or City:

Trip Planner

Search our weather history database for the weather conditions in past years. The results will help you decide how hot, cold, wet, or windy it might be!

Date:

Astronomy

Nov. 11, 2013 Rise Set
Actual Time 6:30 AM CST 4:47 PM CST
Civil Twilight 6:02 AM CST 5:15 PM CST
Nautical Twilight 5:31 AM CST 5:46 PM CST
Astronomical Twilight 5:00 AM CST 6:17 PM CST
Moon 1:21 PM CST (11/11) 12:23 AM CST (11/11)
Length of Visible Light 11h 12m
Length of Day
10h 17m
Waxing Gibbous, 66% of the Moon is Illuminated
Nov 11
Waxing Gibbous
Nov 17
Full
Nov 25
Last Quarter
Dec 2
New
Dec 9
First Quarter

Hourly Weather History & Observations

Time (CST) Temp. Windchill Dew Point Humidity Pressure Visibility Wind Dir Wind Speed Gust Speed Precip Events Conditions
12:15 AM 35.4 °F - 31.8 °F 87% 30.31 in 10.0 mi Calm Calm - N/A   Clear
12:55 AM 34.0 °F - 31.1 °F 89% 30.29 in 10.0 mi Calm Calm - N/A   Clear
1:15 AM 33.3 °F - 32.7 °F 98% 30.30 in 10.0 mi Calm Calm - N/A   Clear
1:55 AM 34.3 °F - 32.0 °F 91% 30.29 in 10.0 mi Calm Calm - N/A   Clear
2:15 AM 34.0 °F - 32.0 °F 92% 30.29 in 10.0 mi Calm Calm - N/A   Clear
2:35 AM 34.5 °F - 32.0 °F 90% 30.29 in 10.0 mi Calm Calm - N/A   Clear
2:55 AM 34.7 °F - 33.4 °F 95% 30.29 in 10.0 mi Calm Calm - N/A   Clear
3:15 AM 35.1 °F - 34.5 °F 98% 30.29 in 10.0 mi Calm Calm - N/A   Scattered Clouds
3:35 AM 36.0 °F - 34.9 °F 96% 30.28 in 10.0 mi Calm Calm - N/A   Scattered Clouds
3:55 AM 37.4 °F - 35.6 °F 93% 30.29 in 10.0 mi Calm Calm - N/A   Scattered Clouds
4:15 AM 36.5 °F - 34.5 °F 93% 30.29 in 10.0 mi Calm Calm - N/A   Scattered Clouds
4:35 AM 36.1 °F - 34.2 °F 93% 30.28 in 10.0 mi Calm Calm - N/A   Clear
4:55 AM 35.6 °F - 33.4 °F 92% 30.28 in 10.0 mi Calm Calm - N/A   Clear
5:15 AM 35.8 °F - 33.1 °F 90% 30.28 in 10.0 mi Calm Calm - N/A   Clear
5:35 AM 35.1 °F - 33.6 °F 94% 30.29 in 10.0 mi Calm Calm - N/A   Clear
5:55 AM 35.1 °F - 34.9 °F 99% 30.29 in 10.0 mi Calm Calm - N/A   Clear
6:15 AM 33.4 °F - 33.4 °F 100% 30.28 in 10.0 mi Calm Calm - N/A   Clear
6:35 AM 33.8 °F - 33.8 °F 100% 30.29 in 10.0 mi Calm Calm - N/A   Clear
6:55 AM 33.8 °F - 33.8 °F 100% 30.29 in 10.0 mi Calm Calm - N/A   Clear
7:15 AM 34.7 °F - 34.7 °F 100% 30.30 in 10.0 mi Calm Calm - N/A   Clear
7:35 AM 37.8 °F - 37.6 °F 99% 30.30 in 10.0 mi Calm Calm - N/A   Clear
7:55 AM 42.6 °F - 36.9 °F 80% 30.29 in 10.0 mi Calm Calm - N/A   Clear
8:15 AM 45.7 °F - 34.2 °F 64% 30.29 in 10.0 mi Calm Calm - N/A   Clear
8:35 AM 47.7 °F - 32.5 °F 56% 30.29 in 10.0 mi South 4.6 mph - N/A   Clear
8:55 AM 49.8 °F - 32.5 °F 51% 30.28 in 10.0 mi South 4.6 mph - N/A   Clear
9:15 AM 52.5 °F - 32.7 °F 47% 30.28 in 10.0 mi South 3.5 mph - N/A   Clear
9:35 AM 55.2 °F - 30.0 °F 38% 30.28 in 10.0 mi SSW 6.9 mph - N/A   Clear
9:55 AM 57.2 °F - 29.1 °F 34% 30.27 in 10.0 mi SSW 5.8 mph - N/A   Scattered Clouds
10:15 AM 58.3 °F - 29.3 °F 33% 30.26 in 10.0 mi SSW 6.9 mph - N/A   Mostly Cloudy
10:35 AM 57.9 °F - 29.5 °F 34% 30.26 in 10.0 mi South 5.8 mph - N/A   Overcast
10:55 AM 58.3 °F - 30.6 °F 35% 30.25 in 10.0 mi South 3.5 mph - N/A   Overcast
11:15 AM 58.6 °F - 31.1 °F 35% 30.25 in 10.0 mi SW 4.6 mph - N/A   Overcast
11:35 AM 59.0 °F - 31.3 °F 35% 30.24 in 10.0 mi SW 5.8 mph - N/A   Overcast
11:55 AM 59.9 °F - 30.7 °F 33% 30.23 in 10.0 mi SW 4.6 mph - N/A   Mostly Cloudy
12:15 PM 59.7 °F - 31.5 °F 34% 30.22 in 10.0 mi WSW 4.6 mph - N/A   Mostly Cloudy
12:35 PM 61.2 °F - 31.6 °F 33% 30.21 in 10.0 mi WSW 5.8 mph - N/A   Mostly Cloudy
12:55 PM 61.3 °F - 30.6 °F 31% 30.20 in 10.0 mi West 8.1 mph - N/A   Mostly Cloudy
1:15 PM 61.2 °F - 32.0 °F 33% 30.19 in 10.0 mi West 5.8 mph - N/A   Mostly Cloudy
1:35 PM 61.2 °F - 32.9 °F 35% 30.19 in 10.0 mi West 6.9 mph - N/A   Overcast
1:55 PM 62.1 °F - 33.6 °F 34% 30.18 in 10.0 mi West 5.8 mph - N/A   Overcast
2:15 PM 62.6 °F - 33.6 °F 34% 30.17 in 10.0 mi SW 8.1 mph - N/A   Overcast
2:35 PM 61.9 °F - 34.2 °F 35% 30.16 in 10.0 mi SW 5.8 mph - N/A   Overcast
2:55 PM 62.1 °F - 33.6 °F 34% 30.16 in 10.0 mi SW 5.8 mph - N/A   Mostly Cloudy
3:15 PM 61.3 °F - 34.3 °F 36% 30.16 in 10.0 mi SW 4.6 mph - N/A   Mostly Cloudy
3:35 PM 60.8 °F - 34.7 °F 38% 30.15 in 10.0 mi SW 3.5 mph - N/A   Overcast
3:55 PM 60.6 °F - 34.5 °F 38% 30.15 in 10.0 mi Calm Calm - N/A   Overcast
4:15 PM 59.7 °F - 35.6 °F 41% 30.15 in 10.0 mi Calm Calm - N/A   Overcast
4:35 PM 59.0 °F - 36.1 °F 42% 30.15 in 10.0 mi SSW 3.5 mph - N/A   Overcast
4:55 PM 58.3 °F - 36.9 °F 45% 30.16 in 10.0 mi Calm Calm - N/A   Overcast
5:15 PM 58.1 °F - 36.3 °F 44% 30.16 in 10.0 mi Calm Calm - N/A   Overcast
5:35 PM 58.1 °F - 36.3 °F 44% 30.16 in 10.0 mi WSW 3.5 mph - N/A   Overcast
5:55 PM 58.3 °F - 36.1 °F 44% 30.16 in 10.0 mi Calm Calm - N/A   Overcast
6:15 PM 57.6 °F - 36.7 °F 46% 30.16 in 10.0 mi SW 3.5 mph - N/A   Overcast
6:35 PM 57.0 °F - 37.4 °F 48% 30.17 in 10.0 mi SW 3.5 mph - N/A   Overcast
6:55 PM 56.8 °F - 37.4 °F 48% 30.17 in 10.0 mi Calm Calm - N/A   Overcast
7:15 PM 57.4 °F - 36.3 °F 45% 30.16 in 10.0 mi Calm Calm - N/A   Overcast
7:35 PM 57.4 °F - 36.5 °F 46% 30.16 in 10.0 mi Calm Calm - N/A   Overcast
7:55 PM 56.5 °F - 38.8 °F 52% 30.16 in 10.0 mi WSW 3.5 mph - N/A   Overcast
8:15 PM 56.1 °F - 39.4 °F 53% 30.18 in 10.0 mi NW 4.6 mph - N/A   Overcast
8:35 PM 56.3 °F - 39.2 °F 53% 30.19 in 10.0 mi NW 3.5 mph - N/A   Overcast
8:55 PM 56.1 °F - 39.9 °F 55% 30.20 in 10.0 mi NW 5.8 mph - N/A   Overcast
9:15 PM 55.9 °F - 39.6 °F 54% 30.21 in 10.0 mi NNW 8.1 mph 17.3 mph N/A   Overcast
9:35 PM 54.7 °F - 44.1 °F 67% 30.23 in 10.0 mi North 10.4 mph - N/A Rain Light Rain
9:55 PM 53.1 °F - 45.0 °F 74% 30.24 in 10.0 mi NNW 18.4 mph 24.2 mph N/A   Overcast
10:15 PM 50.9 °F - 41.7 °F 71% 30.26 in 10.0 mi North 18.4 mph 23.0 mph N/A   Overcast
10:35 PM 49.1 °F - 40.5 °F 72% 30.28 in 10.0 mi North 15.0 mph 26.5 mph N/A   Overcast
10:55 PM 47.8 °F - 39.7 °F 74% 30.29 in 10.0 mi North 17.3 mph 27.6 mph N/A   Overcast
11:15 PM 46.9 °F - 39.4 °F 75% 30.30 in 10.0 mi North 15.0 mph 23.0 mph N/A   Overcast
11:35 PM 45.0 °F 38.2 °F 38.3 °F 77% 30.32 in 10.0 mi North 15.0 mph 23.0 mph N/A   Overcast
11:55 PM 43.9 °F 36.5 °F 37.4 °F 78% 30.33 in 10.0 mi North 16.1 mph 24.2 mph N/A   Overcast